Joplin, MO

2:33 PM CDT on July 26, 2017 (GMT -0500)
Joplin Regional

Weather History for KJLN - December, 2013

Change the Weather History Date:

Sunday, December 29, 2013

  Actual Average Record
Temperature  
Mean Temperature 31 °F 35 °F  
Max Temperature 46 °F 45 °F 69 °F (1984)
Min Temperature 15 °F 25 °F -9 °F (1983)
Degree Days  
Heating Degree Days 34 30  
Month to date heating degree days 910 801  
Since 1 July heating degree days 1798 1558  
Cooling Degree Days 0 0  
Month to date cooling degree days 0 0  
Year to date cooling degree days 1568 1698  
Moisture  
Dew Point 20 °F    
Average Humidity 71    
Maximum Humidity 82    
Minimum Humidity 60    
Precipitation  
Precipitation 0.00 in 0.07 in 1.04 in (1990)
Month to date precipitation 1.38 2.67  
Year to date precipitation 43.98 46.40  
Sea Level Pressure  
Sea Level Pressure 30.17 in    
Wind  
Wind Speed 12 mph (NNW)    
Max Wind Speed 24 mph    
Max Gust Speed 31 mph    
Visibility 10 miles    
Events      
T = Trace of Precipitation, MM = Missing Value Source: NWS Daily Summary

Daily Weather History Graph

Daily Weather History Graph

Search for Another Location

Airport or City:

Trip Planner

Search our weather history database for the weather conditions in past years. The results will help you decide how hot, cold, wet, or windy it might be!

Date:

Astronomy

Dec. 29, 2013 Rise Set
Actual Time 7:31 AM CST 5:09 PM CST
Civil Twilight 7:02 AM CST 5:38 PM CST
Nautical Twilight 6:29 AM CST 6:11 PM CST
Astronomical Twilight 5:57 AM CST 6:42 PM CST
Moon 4:17 AM CST (12/29) 2:46 PM CST (12/29)
Length of Visible Light 10h 36m
Length of Day
9h 38m
Waning Crescent, 11% of the Moon is Illuminated
Dec 29
Waning Crescent
Jan 1
New
Jan 7
First Quarter
Jan 15
Full
Jan 23
Last Quarter

Hourly Weather History & Observations

Time (CST) Temp. Windchill Dew Point Humidity Pressure Visibility Wind Dir Wind Speed Gust Speed Precip Events Conditions
12:53 AM 46.0 °F 42.5 °F 34.0 °F 63% 29.95 in 10.0 mi SW 6.9 mph - N/A   Overcast
1:53 AM 46.0 °F 41.9 °F 35.1 °F 66% 29.96 in 10.0 mi WSW 8.1 mph - N/A   Overcast
2:53 AM 44.1 °F 39.0 °F 35.1 °F 71% 29.95 in 10.0 mi SW 9.2 mph - N/A   Overcast
3:01 AM 44.1 °F 38.6 °F 34.0 °F 68% 29.95 in 10.0 mi SW 10.4 mph - N/A   Overcast
3:53 AM 44.1 °F 39.0 °F 35.1 °F 71% 29.96 in 10.0 mi West 9.2 mph - N/A   Overcast
4:17 AM 42.1 °F 34.5 °F 34.0 °F 73% 29.99 in 10.0 mi NNW 15.0 mph - N/A   Overcast
4:53 AM 37.9 °F 28.9 °F 30.9 °F 76% 30.01 in 10.0 mi North 16.1 mph - N/A   Overcast
5:30 AM 35.1 °F 24.5 °F 28.9 °F 78% 30.02 in 10.0 mi North 18.4 mph - N/A   Overcast
5:53 AM 33.1 °F 21.5 °F 28.0 °F 82% 30.06 in 10.0 mi NNW 19.6 mph 26.5 mph N/A   Overcast
6:12 AM 32.0 °F 19.8 °F 26.1 °F 79% 30.06 in 10.0 mi NNW 20.7 mph 27.6 mph N/A   Overcast
6:53 AM 30.0 °F 17.2 °F 24.1 °F 79% 30.11 in 10.0 mi North 20.7 mph 26.5 mph N/A   Overcast
7:53 AM 26.1 °F 12.7 °F 19.9 °F 78% 30.17 in 10.0 mi NNW 18.4 mph 23.0 mph N/A   Overcast
8:53 AM 24.1 °F 10.1 °F 18.0 °F 77% 30.20 in 10.0 mi North 18.4 mph - N/A   Overcast
9:53 AM 24.1 °F 11.0 °F 17.1 °F 75% 30.24 in 10.0 mi NNW 16.1 mph - N/A   Overcast
10:53 AM 23.0 °F 10.6 °F 15.1 °F 72% 30.26 in 10.0 mi North 13.8 mph - N/A   Overcast
11:53 AM 21.9 °F 7.3 °F 15.1 °F 75% 30.26 in 10.0 mi North 18.4 mph - N/A   Overcast
12:53 PM 21.9 °F 11.0 °F 14.0 °F 72% 30.24 in 10.0 mi North 10.4 mph - N/A   Overcast
1:53 PM 23.0 °F 11.1 °F 12.9 °F 65% 30.26 in 10.0 mi NNW 12.7 mph - N/A   Overcast
2:53 PM 23.0 °F 11.1 °F 12.9 °F 65% 30.27 in 10.0 mi North 12.7 mph - N/A   Overcast
3:53 PM 23.0 °F 10.1 °F 12.9 °F 65% 30.28 in 10.0 mi NNW 15.0 mph - N/A   Overcast
4:53 PM 21.9 °F 9.8 °F 12.9 °F 68% 30.31 in 10.0 mi NNW 12.7 mph - N/A   Overcast
5:53 PM 21.9 °F 11.7 °F 12.0 °F 66% 30.33 in 10.0 mi North 9.2 mph - N/A   Overcast
6:53 PM 21.9 °F 12.5 °F 12.0 °F 66% 30.34 in 10.0 mi North 8.1 mph - N/A   Scattered Clouds
7:53 PM 21.9 °F 12.5 °F 12.0 °F 66% 30.34 in 10.0 mi North 8.1 mph - N/A   Partly Cloudy
8:53 PM 19.9 °F 8.6 °F 9.0 °F 62% 30.34 in 10.0 mi North 10.4 mph - N/A   Clear
9:53 PM 18.0 °F 7.7 °F 7.0 °F 62% 30.34 in 10.0 mi North 8.1 mph - N/A   Clear
10:53 PM 17.1 °F 6.6 °F 6.1 °F 62% 30.34 in 10.0 mi North 8.1 mph - N/A   Partly Cloudy
11:53 PM 16.0 °F 5.3 °F 3.0 °F 57% 30.32 in 10.0 mi North 8.1 mph - N/A   Clear